Location: Mesa Verde
(33.6055°N, 114.7275°W)
Time: 10:03:35
(UTC+00:00)

N. Korean satellite - Pass Details

Date: 02 October 2021
Orbit: 450 x 495 km, 97.3° (Epoch: 15 October)

Event Time Altitude Azimuth Distance (km) Brightness Sun altitude
Rises 12:49:22 0° 11° (N) 2,555 10.4 -10.2°
Reaches altitude 10° 12:51:26 10° 12° (NNE) 1,677 9.5 -9.7°
Maximum altitude 12:55:02 88° 97° (E) 496 6.6 -9.0°
Drops below altitude 10° 12:58:40 10° 191° (SSW) 1,682 9.2 -8.2°
Sets 13:00:44 0° 192° (SSW) 2,563 10.1 -7.8°
